Location: Azalea Creek
(37.1280°N, 119.2623°W)
Time: 20:48:00
(UTC+00:00)

ARGOS - Pass Details

Date: 17 February 2020
Orbit: 819 x 835 km, 98.5° (Epoch: 29 March)

Event Time Altitude Azimuth Distance (km) Brightness Sun altitude
Exits shadow 03:38:34 65° 91° (E) 913 3.0 -24.7°
Maximum altitude 03:38:48 66° 74° (ENE) 907 3.0 -24.7°
Drops below altitude 10° 03:44:11 10° 353° (N) 2,451 5.7 -25.8°
Sets 03:46:34 0° 351° (N) 3,390 6.5 -26.3°
